Weather History for Jefferson, NC

Change the Weather History Date:

Saturday, November 12, 2011

  Actual Average Record
Temperature  
Mean Temperature 48 °F -  
Max Temperature 59 °F 53 °F 69 °F (1989)
Min Temperature 37 °F 33 °F 20 °F (1973)
Degree Days  
Heating Degree Days 17    
Moisture  
Dew Point 20 °F    
Average Humidity 34    
Maximum Humidity 45    
Minimum Humidity 18    
Precipitation  
Precipitation 0.00 in - - ()
Sea Level Pressure  
Sea Level Pressure 30.18 in    
Wind  
Wind Speed 11 mph (WSW)    
Max Wind Speed 22 mph    
Max Gust Speed 28 mph    
Visibility 10 miles    
Events      
Averages and records for this station are not official NWS values.
T = Trace of Precipitation, MM = Missing Value Source: NWS Daily Summary

Daily Weather History Graph

Daily Weather History Graph

Search for Another Location

Airport:

Trip Planner

Search our weather history database for the weather conditions in past years. The results will help you decide how hot, cold, wet, or windy it might be!

Date:

Astronomy

Nov. 12, 2011 Rise Set
Actual Time 6:59 AM EST 5:19 PM EST
Civil Twilight 6:32 AM EST 5:46 PM EST
Nautical Twilight 6:01 AM EST 6:17 PM EST
Astronomical Twilight 5:31 AM EST 6:48 PM EST
Moon 6:37 PM EST (11/12) 8:37 AM EST (11/12)
Length of Visible Light 11h 14m
Length of Day
10h 19m
Full, 97% of the Moon is Illuminated
Nov 12
Full
Nov 18
Last Quarter
Nov 25
New
Dec 2
First Quarter
Dec 10
Full

Hourly Weather History & Observations

Time (EST) Temp. Windchill Dew Point Humidity Pressure Visibility Wind Dir Wind Speed Gust Speed Precip Events Conditions
12:15 AM 37.4 °F 29.3 °F 12.2 °F 36% 30.12 in 10.0 mi WNW 12.7 mph - N/A   Clear
12:35 AM 37.4 °F 29.3 °F 12.2 °F 36% 30.12 in 10.0 mi West 12.7 mph - N/A   Clear
12:55 AM 39.2 °F 31.6 °F 14.0 °F 36% 30.12 in 10.0 mi West 12.7 mph - N/A   Clear
1:15 AM 39.2 °F 30.5 °F 15.8 °F 39% 30.11 in 10.0 mi West 16.1 mph 21.9 mph N/A   Clear
1:35 AM 41.0 °F 31.6 °F 15.8 °F 36% 30.11 in 10.0 mi WNW 20.7 mph 25.3 mph N/A   Clear
1:55 AM 41.0 °F 33.1 °F 15.8 °F 36% 30.12 in 10.0 mi WNW 15.0 mph 24.2 mph N/A   Clear
2:15 AM 39.2 °F 31.2 °F 15.8 °F 39% 30.13 in 10.0 mi WNW 13.8 mph 24.2 mph N/A   Clear
2:35 AM 41.0 °F 32.8 °F 17.6 °F 39% 30.12 in 10.0 mi WNW 16.1 mph 23.0 mph N/A   Clear
2:55 AM 41.0 °F 31.4 °F 17.6 °F 39% 30.12 in 10.0 mi WNW 21.9 mph 26.5 mph N/A   Clear
3:35 AM 41.0 °F 31.4 °F 19.4 °F 42% 30.13 in 10.0 mi WNW 21.9 mph 27.6 mph N/A   Clear
3:55 AM 41.0 °F 33.9 °F 19.4 °F 42% 30.13 in 10.0 mi West 12.7 mph 24.2 mph N/A   Clear
4:15 AM 41.0 °F 33.5 °F 21.2 °F 45% 30.13 in 10.0 mi WNW 13.8 mph 23.0 mph N/A   Clear
4:35 AM 41.0 °F 34.7 °F 21.2 °F 45% 30.13 in 10.0 mi West 10.4 mph 21.9 mph N/A   Clear
4:55 AM 41.0 °F 33.9 °F 21.2 °F 45% 30.14 in 10.0 mi West 12.7 mph 20.7 mph N/A   Clear
5:15 AM 41.0 °F 33.5 °F 21.2 °F 45% 30.13 in 10.0 mi West 13.8 mph 23.0 mph N/A   Clear
5:35 AM 41.0 °F 33.1 °F 21.2 °F 45% 30.14 in 10.0 mi West 15.0 mph 26.5 mph N/A   Clear
5:55 AM 41.0 °F 34.3 °F 21.2 °F 45% 30.16 in 10.0 mi West 11.5 mph 16.1 mph N/A   Clear
6:35 AM 42.8 °F 38.6 °F 21.2 °F 42% 30.18 in 10.0 mi West 6.9 mph 17.3 mph N/A   Clear
6:55 AM 42.8 °F 37.0 °F 21.2 °F 42% 30.18 in 10.0 mi West 10.4 mph - N/A   Clear
7:15 AM 42.8 °F 39.3 °F 21.2 °F 42% 30.19 in 10.0 mi West 5.8 mph - N/A   Clear
7:35 AM 42.8 °F 38.0 °F 21.2 °F 42% 30.20 in 10.0 mi West 8.1 mph - N/A   Clear
8:15 AM 44.6 °F 39.2 °F 23.0 °F 43% 30.20 in 10.0 mi West 10.4 mph - N/A   Clear
8:35 AM 44.6 °F 38.8 °F 23.0 °F 43% 30.21 in 10.0 mi West 11.5 mph 20.7 mph N/A   Clear
8:55 AM 46.4 °F 41.5 °F 23.0 °F 40% 30.22 in 10.0 mi WNW 10.4 mph 18.4 mph N/A   Clear
9:15 AM 46.4 °F 40.7 °F 21.2 °F 37% 30.22 in 10.0 mi West 12.7 mph 19.6 mph N/A   Clear
9:35 AM 46.4 °F 41.9 °F 21.2 °F 37% 30.23 in 10.0 mi West 9.2 mph 19.6 mph N/A   Clear
9:55 AM 50.0 °F - 21.2 °F 32% 30.23 in 10.0 mi West 11.5 mph 20.7 mph N/A   Clear
10:15 AM 50.0 °F - 19.4 °F 30% 30.23 in 10.0 mi West 11.5 mph 17.3 mph N/A   Clear
10:35 AM 50.0 °F - 19.4 °F 30% 30.23 in 10.0 mi West 12.7 mph 20.7 mph N/A   Clear
10:55 AM 51.8 °F - 19.4 °F 28% 30.22 in 10.0 mi West 9.2 mph 17.3 mph N/A   Clear
11:15 AM 51.8 °F - 17.6 °F 26% 30.23 in 10.0 mi West 10.4 mph - N/A   Clear
11:35 AM 53.6 °F - 17.6 °F 24% 30.22 in 10.0 mi West 9.2 mph - N/A   Clear
11:55 AM 53.6 °F - 19.4 °F 26% 30.21 in 10.0 mi WNW 6.9 mph - N/A   Clear
12:15 PM 53.6 °F - 19.4 °F 26% 30.20 in 10.0 mi West 6.9 mph - N/A   Clear
12:35 PM 55.4 °F - 19.4 °F 25% 30.20 in 10.0 mi WSW 5.8 mph - N/A   Clear
12:55 PM 57.2 °F - 14.0 °F 18% 30.19 in 10.0 mi SSW 5.8 mph 16.1 mph N/A   Clear
1:15 PM 57.2 °F - 17.6 °F 21% 30.18 in 10.0 mi South 6.9 mph - N/A   Clear
1:35 PM 59.0 °F - 17.6 °F 20% 30.18 in 10.0 mi South 4.6 mph - N/A   Clear
1:55 PM 57.2 °F - 23.0 °F 27% 30.17 in 10.0 mi SSE 3.5 mph - N/A   Clear
2:15 PM 57.2 °F - 23.0 °F 27% 30.17 in 10.0 mi SE 4.6 mph - N/A   Clear
2:35 PM 55.4 °F - 23.0 °F 29% 30.17 in 10.0 mi South 5.8 mph - N/A   Clear
2:55 PM 57.2 °F - 21.2 °F 25% 30.17 in 10.0 mi South 6.9 mph - N/A   Clear
3:15 PM 55.4 °F - 21.2 °F 26% 30.17 in 10.0 mi SSE 4.6 mph - N/A   Clear
3:35 PM 55.4 °F - 21.2 °F 26% 30.17 in 10.0 mi South 5.8 mph - N/A   Clear
3:55 PM 55.4 °F - 21.2 °F 26% 30.18 in 10.0 mi South 5.8 mph - N/A   Clear
4:15 PM 53.6 °F - 21.2 °F 28% 30.19 in 10.0 mi South 4.6 mph - N/A   Clear
4:35 PM 53.6 °F - 21.2 °F 28% 30.18 in 10.0 mi SSE 3.5 mph - N/A   Clear
4:55 PM 51.8 °F - 21.2 °F 30% 30.19 in 10.0 mi Calm Calm - N/A   Clear
5:15 PM 51.8 °F - 21.2 °F 30% 30.20 in 10.0 mi Calm Calm - N/A   Clear
5:35 PM 50.0 °F - 21.2 °F 32% 30.20 in 10.0 mi Calm Calm - N/A   Clear
5:55 PM 50.0 °F - 19.4 °F 30% 30.20 in 10.0 mi Calm Calm - N/A   Clear
6:15 PM 50.0 °F - 21.2 °F 32% 30.20 in 10.0 mi SSE 3.5 mph - N/A   Clear
6:35 PM 48.2 °F - 21.2 °F 34% 30.20 in 10.0 mi Calm Calm - N/A   Clear
6:55 PM 48.2 °F - 23.0 °F 37% 30.21 in 10.0 mi Calm Calm - N/A   Clear
7:15 PM 48.2 °F - 23.0 °F 37% 30.21 in 10.0 mi Calm Calm - N/A   Clear
7:35 PM 46.4 °F 45.2 °F 23.0 °F 40% 30.21 in 10.0 mi South 3.5 mph - N/A   Clear
7:55 PM 46.4 °F 45.2 °F 23.0 °F 40% 30.21 in 10.0 mi SSW 3.5 mph - N/A   Clear
8:15 PM 46.4 °F 45.2 °F 23.0 °F 40% 30.21 in 10.0 mi SSW 3.5 mph - N/A   Clear
8:35 PM 44.6 °F 42.2 °F 23.0 °F 43% 30.20 in 10.0 mi South 4.6 mph - N/A   Clear
8:55 PM 44.6 °F 42.2 °F 23.0 °F 43% 30.20 in 10.0 mi South 4.6 mph - N/A   Clear
9:15 PM 42.8 °F 40.1 °F 23.0 °F 46% 30.20 in 10.0 mi South 4.6 mph - N/A   Clear
9:35 PM 42.8 °F 41.1 °F 23.0 °F 46% 30.20 in 10.0 mi South 3.5 mph - N/A   Clear
9:55 PM 42.8 °F 40.1 °F 23.0 °F 46% 30.20 in 10.0 mi South 4.6 mph - N/A   Clear
10:15 PM 42.8 °F 41.1 °F 23.0 °F 46% 30.19 in 10.0 mi SSE 3.5 mph - N/A   Clear
10:35 PM 41.0 °F 39.0 °F 24.8 °F 53% 30.19 in 10.0 mi South 3.5 mph - N/A   Clear
10:55 PM 41.0 °F 39.0 °F 24.8 °F 53% 30.19 in 10.0 mi South 3.5 mph - N/A   Clear
11:15 PM 41.0 °F 38.0 °F 24.8 °F 53% 30.18 in 10.0 mi South 4.6 mph - N/A   Clear
11:35 PM 41.0 °F 39.0 °F 24.8 °F 53% 30.19 in 10.0 mi South 3.5 mph - N/A   Clear